Time,TemperatureF,DewpointF,PressureIn,WindDirection,WindDirectionDegrees,WindSpeedMPH,WindSpeedGustMPH,Humidity,HourlyPrecipIn,Conditions,Clouds,dailyrainin,SoftwareType,DateUTC
2013-10-06 17:00:00,86.0,25.0,-100.00,NNE,23,6.0,-999.0,11,0.00,,,-99.99,,2013-10-07 00:00:00,
2013-10-06 17:42:00,86.0,25.0,-100.00,NNE,23,6.0,-999.0,11,0.00,,,-99.99,,2013-10-07 00:42:00,
2013-10-06 17:52:00,86.0,25.0,-100.00,NNE,23,6.0,-999.0,11,0.00,,,-99.99,,2013-10-07 00:52:00,
2013-10-06 18:00:00,85.0,28.0,-100.00,North,6,8.0,-999.0,12,0.00,,,-99.99,,2013-10-07 01:00:00,
2013-10-06 18:42:00,85.0,28.0,-100.00,North,6,8.0,-999.0,12,0.00,,,-99.99,,2013-10-07 01:42:00,
2013-10-06 18:53:00,85.0,28.0,-100.00,North,6,8.0,-999.0,12,0.00,,,-99.99,,2013-10-07 01:53:00,
2013-10-06 19:00:00,81.0,32.0,-100.00,NNW,332,3.0,-999.0,17,0.00,,,-99.99,,2013-10-07 02:00:00,
2013-10-06 19:42:00,81.0,32.0,-100.00,NNW,332,3.0,-999.0,17,0.00,,,-99.99,,2013-10-07 02:42:00,
2013-10-06 19:53:00,81.0,32.0,-100.00,NNW,332,3.0,-999.0,17,0.00,,,-99.99,,2013-10-07 02:53:00,
2013-10-06 20:00:00,72.0,33.0,-100.00,NE,48,1.0,-999.0,24,0.00,,,-99.99,,2013-10-07 03:00:00,
2013-10-06 20:44:00,72.0,33.0,-100.00,NE,48,1.0,-999.0,24,0.00,,,-99.99,,2013-10-07 03:44:00,
2013-10-06 20:54:00,72.0,33.0,-100.00,NE,48,1.0,-999.0,24,0.00,,,-99.99,,2013-10-07 03:54:00,
2013-10-06 21:00:00,66.0,39.0,-100.00,SE,135,5.0,-999.0,37,0.00,,,-99.99,,2013-10-07 04:00:00,
2013-10-06 21:44:00,66.0,39.0,-100.00,SE,135,5.0,-999.0,37,0.00,,,-99.99,,2013-10-07 04:44:00,
2013-10-06 21:53:00,66.0,39.0,-100.00,SE,135,5.0,-999.0,37,0.00,,,-99.99,,2013-10-07 04:53:00,
2013-10-06 22:00:00,65.0,37.0,-100.00,ESE,119,2.0,-999.0,35,0.00,,,-99.99,,2013-10-07 05:00:00,
2013-10-06 22:43:00,65.0,37.0,-100.00,ESE,119,2.0,-999.0,35,0.00,,,-99.99,,2013-10-07 05:43:00,
2013-10-06 22:52:00,65.0,37.0,-100.00,ESE,119,2.0,-999.0,35,0.00,,,-99.99,,2013-10-07 05:52:00,
2013-10-06 23:00:00,62.0,34.0,-100.00,ESE,108,2.0,-999.0,35,0.00,,,-99.99,,2013-10-07 06:00:00,
2013-10-06 23:42:00,62.0,34.0,-100.00,ESE,108,2.0,-999.0,35,0.00,,,-99.99,,2013-10-07 06:42:00,
2013-10-06 23:52:00,62.0,34.0,-100.00,ESE,108,2.0,-999.0,35,0.00,,,-99.99,,2013-10-07 06:52:00,